Location: Albuquerque Trailhead
(34.7934°N, 106.3736°W)
Time: 23:45:36
(UTC+00:00)

NOAA 19 - Pass Details

Date: 11 April 2023
Orbit: 840 x 859 km, 99.1° (Epoch: 28 May)

Event Time Altitude Azimuth Distance (km) Brightness Sun altitude
Exits shadow 02:47:03 14° 152° (SSE) 2,209 6.9 -15.3°
Maximum altitude 02:51:47 64° 74° (ENE) 929 5.2 -16.2°
Drops below altitude 10° 02:57:10 10° 353° (N) 2,463 8.0 -17.2°
Sets 02:59:33 0° 351° (N) 3,401 8.8 -17.6°
